CW8633 Weather Reports


Display with metric or nautical units.
time (UTC)temp
F
wind
direction
speed
MPH
gust
MPH
rain 1hr
in
rain 24hr
in
rain mn
in
humidity
%
barometer
mb
20240612213613 87 221 4.0 11.0 0.00 0.00 0.00 29 1014.2
20240612212649 87 200 7.0 12.0 0.00 0.00 0.00 29 1014.2
20240612211619 87 210 6.0 10.0 0.00 0.00 0.00 30 1014.4
20240612210630 87 170 7.0 12.0 0.00 0.00 0.00 28 1014.5
20240612205613 87 192 5.0 9.0 0.00 0.00 0.00 27 1014.6
20240612204628 87 259 3.0 7.0 0.00 0.00 0.00 28 1014.8
20240612203619 86 250 4.0 9.0 0.00 0.00 0.00 28 1014.8
20240612202630 86 252 5.0 9.0 0.00 0.00 0.00 30 1014.9
20240612201621 85 229 4.0 8.0 0.00 0.00 0.00 28 1015.1
20240612200616 85 200 4.0 9.0 0.00 0.00 0.00 28 1015.1
20240612195617 85 185 4.0 7.0 0.00 0.00 0.00 28 1015.2
20240612194629 85 296 3.0 8.0 0.00 0.00 0.00 26 1015.3
20240612193624 85 198 4.0 6.0 0.00 0.00 0.00 26 1015.4
20240612192635 85 194 4.0 7.0 0.00 0.00 0.00 26 1015.4
20240612191626 85 331 1.0 3.0 0.00 0.00 0.00 28 1015.6
20240612190618 85 331 1.0 5.0 0.00 0.00 0.00 30 1015.6
20240612185622 84 338 2.0 5.0 0.00 0.00 0.00 31 1015.6
20240612184614 83 5 2.0 6.0 0.00 0.00 0.00 34 1015.8
20240612183625 82 63 1.0 8.0 0.00 0.00 0.00 34 1015.9
20240612182636 80 92 2.0 4.0 0.00 0.00 0.00 38 1015.9
20240612181645 79 151 2.0 7.0 0.00 0.00 0.00 38 1016.0
20240612180627 79 146 2.0 5.0 0.00 0.00 0.00 39 1016.0
20240612175648 78 122 1.0 4.0 0.00 0.00 0.00 41 1016.1
20240612174617 77 242 2.0 4.0 0.00 0.00 0.00 42 1016.2
20240612173629 77 205 2.0 6.0 0.00 0.00 0.00 43 1016.1
20240612172645 76 246 2.0 5.0 0.00 0.00 0.00 45 1016.0
20240612171614 76 241 2.0 4.0 0.00 0.00 0.00 46 1016.0
20240612170645 75 170 1.0 5.0 0.00 0.00 0.00 44 1016.0
20240612165625 75 112 2.0 4.0 0.00 0.00 0.00 48 1015.9
20240612164621 75 111 2.0 4.0 0.00 0.00 0.00 48 1016.0
20240612163613 75 327 1.0 3.0 0.00 0.00 0.00 48 1016.1
20240612162624 74 327 2.0 5.0 0.00 0.00 0.00 50 1016.2
20240612161616 73 325 1.0 4.0 0.00 0.00 0.00 49 1016.2
20240612160631 72 355 0.0 4.0 0.00 0.00 0.00 53 1016.2
20240612155631 72 355 2.0 4.0 0.00 0.00 0.00 52 1016.3
20240612154623 71 46 2.0 3.0 0.00 0.00 0.00 54 1016.4
20240612153614 70 44 2.0 3.0 0.00 0.00 0.00 58 1016.4
20240612152630 69 9 2.0 5.0 0.00 0.00 0.00 57 1016.4
20240612151619 68 11 2.0 5.0 0.00 0.00 0.00 58 1016.4
20240612150624 67 11 2.0 4.0 0.00 0.00 0.00 59 1016.4
20240612145647 66 336 1.0 3.0 0.00 0.00 0.00 60 1016.4
20240612144637 65 336 3.0 4.0 0.00 0.00 0.00 61 1016.2
20240612143612 64 222 1.0 2.0 0.00 0.00 0.00 64 1016.1
20240612142623 64 225 1.0 3.0 0.00 0.00 0.00 63 1016.1
20240612141614 64 224 2.0 3.0 0.00 0.00 0.00 63 1016.2
20240612140647 64 225 1.0 3.0 0.00 0.00 0.00 64 1016.1
20240612135627 64 109 1.0 2.0 0.00 0.00 0.00 61 1016.1
20240612134623 63 73 1.0 2.0 0.00 0.00 0.00 63 1016.0
20240612133614 62 73 1.0 2.0 0.00 0.00 0.00 65 1015.9
20240612132643 61 73 1.0 2.0 0.00 0.00 0.00 70 1015.9
20240612131616 59 73 1.0 3.0 0.00 0.00 0.00 72 1015.8
20240612130626 57 73 2.0 4.0 0.00 0.00 0.00 74 1015.7
20240612125627 56 73 3.0 4.0 0.00 0.00 0.00 77 1015.6
20240612124619 55 41 2.0 3.0 0.00 0.00 0.00 80 1015.6
20240612123615 54 40 2.0 3.0 0.00 0.00 0.00 81 1015.5
20240612122627 53 40 1.0 3.0 0.00 0.00 0.00 80 1015.4
20240612121619 53 34 2.0 3.0 0.00 0.00 0.00 80 1015.2
20240612120633 54 34 1.0 2.0 0.00 0.00 0.00 77 1015.2
20240612115617 55 34 2.0 3.0 0.00 0.00 0.00 76 1015.1
20240612114628 55 34 2.0 3.0 0.00 0.00 0.00 75 1015.1
20240612113619 55 82 0.0 2.0 0.00 0.00 0.00 77 1014.9
20240612112651 55 80 1.0 2.0 0.00 0.00 0.00 77 1014.9
20240612111642 54 80 1.0 4.0 0.00 0.00 0.00 77 1014.8
20240612110637 54 80 3.0 4.0 0.00 0.00 0.00 77 1014.7
20240612105618 54 90 1.0 3.0 0.00 0.00 0.00 77 1014.7
20240612104647 54 90 1.0 3.0 0.00 0.00 0.00 77 1014.5
20240612103617 55 90 1.0 4.0 0.00 0.00 0.00 76 1014.6
20240612102652 55 133 1.0 2.0 0.00 0.00 0.00 76 1014.7
20240612101643 55 133 1.0 2.0 0.00 0.00 0.00 77 1014.6
20240612100613 55 133 3.0 4.0 0.00 0.00 0.00 73 1014.4
20240612095613 56 114 2.0 3.0 0.00 0.00 0.00 72 1014.1
20240612094628 57 143 1.0 4.0 0.00 0.00 0.00 69 1014.3
20240612093620 58 37 0.0 3.0 0.00 0.00 0.00 67 1014.3
20240612092631 58 37 1.0 3.0 0.00 0.00 0.00 65 1014.2
20240612091622 58 63 2.0 4.0 0.00 0.00 0.00 65 1014.2
20240612090617 58 80 1.0 2.0 0.00 0.00 0.00 66 1014.1
20240612085619 58 80 2.0 4.0 0.00 0.00 0.00 66 1014.0
20240612084630 59 40 3.0 3.0 0.00 0.00 0.00 66 1014.0
20240612083620 59 36 1.0 3.0 0.00 0.00 0.00 65 1014.1
20240612082616 59 19 3.0 5.0 0.00 0.00 0.00 66 1014.2
20240612081628 59 5 3.0 4.0 0.00 0.00 0.00 65 1014.1
20240612080639 61 34 2.0 4.0 0.00 0.00 0.00 63 1014.1
20240612075640 62 32 2.0 3.0 0.00 0.00 0.00 62 1014.1
20240612074635 62 66 2.0 3.0 0.00 0.00 0.00 59 1014.0
20240612073624 62 66 0.0 3.0 0.00 0.00 0.00 57 1013.9
20240612072616 62 66 2.0 3.0 0.00 0.00 0.00 59 1014.0
20240612071628 62 65 2.0 4.0 0.00 0.00 0.00 59 1014.0
20240612070624 62 67 1.0 3.0 0.00 0.00 0.00 60 1014.0
20240612065626 62 97 1.0 3.0 0.00 0.00 0.00 62 1013.9
20240612064616 62 103 2.0 3.0 0.00 0.00 0.00 63 1014.0
20240612063648 62 103 1.0 3.0 0.00 0.00 0.00 61 1013.9
20240612062622 62 103 2.0 3.0 0.00 0.00 0.00 60 1013.9
20240612061613 62 103 2.0 2.0 0.00 0.00 0.00 61 1014.0
20240612060630 63 103 3.0 3.0 0.00 0.00 0.00 61 1014.0
20240612055631 64 121 0.0 3.0 0.00 0.00 0.00 58 1013.9
20240612054622 64 121 1.0 3.0 0.00 0.00 0.00 57 1013.9
20240612053638 65 121 1.0 2.0 0.00 0.00 0.00 56 1013.9
20240612052629 65 121 1.0 3.0 0.00 0.00 0.00 56 1013.9
20240612051641 65 121 2.0 3.0 0.00 0.00 0.00 56 1013.9
20240612050630 65 163 0.0 2.0 0.00 0.00 0.00 55 1013.7
20240612045647 65 163 1.0 2.0 0.00 0.00 0.00 56 1013.7
20240612044620 66 163 1.0 2.0 0.00 0.00 0.00 52 1013.7
20240612043612 69 163 2.0 5.0 0.00 0.00 0.00 50 1013.7
20240612042624 72 258 1.0 4.0 0.00 0.00 0.00 43 1013.7
20240612041618 73 259 1.0 4.0 0.00 0.00 0.00 37 1013.4
20240612040648 73 93 4.0 7.0 0.00 0.00 0.00 36 1013.3
20240612035630 73 86 4.0 6.0 0.00 0.00 0.00 36 1013.2
20240612034621 73 98 5.0 7.0 0.00 0.00 0.00 36 1013.1
20240612033613 73 104 3.0 6.0 0.00 0.00 0.00 38 1013.1
20240612032628 73 86 3.0 5.0 0.00 0.00 0.00 37 1013.1
20240612031641 74 88 2.0 4.0 0.00 0.00 0.00 40 1013.1
20240612030651 75 96 2.0 4.0 0.00 0.00 0.00 38 1013.1
20240612025611 76 110 2.0 4.0 0.00 0.00 0.00 38 1013.1
20240612024627 77 123 2.0 6.0 0.00 0.00 0.00 38 1013.0
20240612023638 77 146 2.0 3.0 0.00 0.00 0.00 40 1013.2
20240612022628 78 143 2.0 5.0 0.00 0.00 0.00 40 1013.1
20240612021621 79 140 3.0 4.0 0.00 0.00 0.00 41 1013.1
20240612020616 81 149 3.0 4.0 0.00 0.00 0.00 38 1013.1
20240612015616 82 144 2.0 3.0 0.00 0.00 0.00 36 1013.0
20240612014628 82 147 2.0 4.0 0.00 0.00 0.00 37 1013.1
20240612013620 83 183 3.0 5.0 0.00 0.00 0.00 31 1013.1
20240612012615 83 169 4.0 7.0 0.00 0.00 0.00 32 1013.2
20240612011628 84 169 4.0 6.0 0.00 0.00 0.00 29 1013.3
20240612010620 84 157 4.0 7.0 0.00 0.00 0.00 28 1013.3
20240612005626 84 117 5.0 8.0 0.00 0.00 0.00 28 1013.4
20240612004618 84 148 5.0 8.0 0.00 0.00 0.00 30 1013.5
20240612003629 84 180 7.0 12.0 0.00 0.00 0.00 28 1013.7
20240612002621 84 159 6.0 11.0 0.00 0.00 0.00 30 1013.8
20240612001616 84 181 6.0 9.0 0.00 0.00 0.00 29 1013.9
20240612000630 84 148 5.0 7.0 0.00 0.00 0.00 27 1014.0
20240611235612 84 188 5.0 8.0 0.00 0.00 0.00 28 1014.1
20240611234643 84 176 7.0 9.0 0.00 0.00 0.00 29 1014.1
20240611233617 84 205 5.0 11.0 0.00 0.00 0.00 28 1014.3
20240611232630 84 282 7.0 12.0 0.00 0.00 0.00 29 1014.3
20240611231620 84 175 6.0 9.0 0.00 0.00 0.00 28 1014.5
20240611230651 84 188 5.0 12.0 0.00 0.00 0.00 29 1014.6
20240611225615 84 190 6.0 12.0 0.00 0.00 0.00 29 1014.8
20240611224627 84 134 6.0 9.0 0.00 0.00 0.00 28 1014.8
20240611223617 84 181 5.0 9.0 0.00 0.00 0.00 29 1015.0
20240611222628 84 140 5.0 10.0 0.00 0.00 0.00 27 1015.1
20240611221643 84 263 4.0 8.0 0.00 0.00 0.00 29 1015.1
20240611220613 83 180 6.0 11.0 0.00 0.00 0.00 27 1015.4
20240611215614 83 188 5.0 10.0 0.00 0.00 0.00 30 1015.4
20240611214627 82 175 7.0 15.0 0.00 0.00 0.00 31 1015.5